Regional Weather Roundup
Issued by NWS Bismarck, ND

Home | Current Version | Previous Version | Text Only | Print | Product List | Glossary On
Versions: 1 2 3 4 5 6 7 8 9 10 11 12 13 14 15 16 17 18 19 20 21 22 23 24 25 26 27 28 29 30 31 32 33 34 35 36 37 38 39 40 41 42 43 44 45 46 47 48 49 50
000
ASUS43 KBIS 171259
RWRBIS

NWR BROADCAST TEXT
NATIONAL WEATHER SERVICE BISMARCK ND
700 AM CST WED DEC 17 2014

NOTE: "FAIR" INDICATES FEW OR NO CLOUDS BELOW 12,000 FEET WITH NO
SIGNIFICANT WEATHER AND/OR OBSTRUCTIONS TO VISIBILITY.


CITY           SKY/WX    TMP DP  RH WIND       PRES   REMARKS
WILLISTON      CLOUDY    19  13  77 SE8       30.17S WCI   9
MINOT          CLOUDY     7   3  84 VRB5      30.26S WCI  -2
MINOT AFB      NOT AVBL
BISMARCK       CLOUDY    14  10  84 SE8       30.29R WCI   3
DICKINSON      NOT AVBL
GARRISON         N/A     15  12  88 S9        30.23S WCI   3
HETTINGER ARPT CLOUDY    14  12  92 SE14      30.14R WCI  -1
JAMESTOWN      PTCLDY     0  -4  83 W7        30.32R WCI -13
CARRINGTON     FAIR       1   0  92 MISG      30.32R
CROSBY         CLOUDY    18  16  93 SE9       30.19S WCI   6
HARVEY         FAIR       0  -2  92 SE3       30.31R
HAZEN          CLOUDY    16  10  79 SE8       30.26S WCI   5
OAKES            N/A      1   1 100 N7        30.34S WCI -11
WATFORD CITY   CLOUDY    16  14  93 SE9       30.16R WCI   4
$$

CITY           SKY/WX    TMP DP  RH WIND       PRES   REMARKS
GRAND FORKS    PTCLDY     1  -2  87 N3        30.37S
GRAND FORKS AF NOT AVBL
DEVILS LAKE    MOCLDY    -2 -15  55 CALM      30.29F
FARGO          CLEAR      4  -1  80 N6        30.37S WCI  -7
GWINNER        MOSUNNY    5   3  92 MISG      30.36S
ROLLA          CLOUDY    -4  -8  84 CALM      30.28F FOG
$$

CITY           SKY/WX    TMP DP  RH WIND       PRES   REMARKS
ABERDEEN       CLEAR      4   0  83 N5        30.33F WCI  -5
MOBRIDGE       CLOUDY    16  11  80 SE9       30.24S WCI   4
BUFFALO          N/A     17  14  88 SE15      30.00R WCI   2
RAPID CITY     CLOUDY    19  17  92 SE7       30.05S WCI  10
GLASGOW        CLOUDY    18  15  88 E14       30.07S WCI   4
SIDNEY         CLOUDY    19  14  79 SE12      30.16F WCI   7
WOLF POINT     CLOUDY    19  16  88 SE6       30.13S WCI  11
GLENDIVE       CLOUDY    16  12  86 SE9       30.11S WCI   4
MILES CITY     CLOUDY    22  18  85 SE10      30.04F WCI  11
BAKER          CLOUDY    17  16  95 SE15      30.07S WCI   2
$$

CITY           SKY/WX    TMP DP  RH WIND       PRES   REMARKS
BILLINGS       CLOUDY    21  19  92 S5        29.96S FOG     WCI  15
GREAT FALLS    CLOUDY    23  21  92 E3        29.90S
$$



USA.gov is the U.S. government's official web portal to all federal, state and local government web resources and services.